Weather History for KBVE - October, 2012

Change the Weather History Date:

Sunday, October 14, 2012

  Actual Average Record
Temperature  
Mean Temperature 78 °F -  
Max Temperature 84 °F - - ()
Min Temperature 72 °F - - ()
Cooling Degree Days 13    
Growing Degree Days 28 (Base 50)    
Moisture  
Dew Point 71 °F    
Average Humidity 81    
Maximum Humidity 100    
Minimum Humidity 67    
Precipitation  
Precipitation 0.00 in - - ()
Sea Level Pressure  
Sea Level Pressure 30.07 in    
Wind  
Wind Speed 4 mph (ESE)    
Max Wind Speed 8 mph    
Max Gust Speed -    
Visibility 9 miles    
Events      
T = Trace of Precipitation, MM = Missing Value Source: NWS Daily Summary

Daily Weather History Graph

Daily Weather History Graph

Search for Another Location

Airport or City:

Trip Planner

Search our weather history database for the weather conditions in past years. The results will help you decide how hot, cold, wet, or windy it might be!

Date:

Astronomy

Oct. 14, 2012 Rise Set
Actual Time 6:58 AM CDT 6:27 PM CDT
Civil Twilight 6:34 AM CDT 6:51 PM CDT
Nautical Twilight 6:07 AM CDT 7:19 PM CDT
Astronomical Twilight 5:39 AM CDT 7:46 PM CDT
Moon 5:59 AM CDT (10/14) 5:48 PM CDT (10/14)
Length of Visible Light 12h 17m
Length of Day
11h 29m
Waning Crescent, 1% of the Moon is Illuminated
Oct 14
Waning Crescent
Oct 15
New
Oct 21
First Quarter
Oct 29
Full
Nov 6
Last Quarter

Hourly Weather History & Observations

Time (CDT) Temp. Heat Index Dew Point Humidity Pressure Visibility Wind Dir Wind Speed Gust Speed Precip Events Conditions
12:51 AM 73.9 °F - 71.1 °F 91% 30.11 in 7.0 mi ESE 4.6 mph - N/A   Clear
1:51 AM 75.0 °F - 71.1 °F 87% 30.10 in 8.0 mi SE 5.8 mph - N/A   Partly Cloudy
2:51 AM 73.9 °F - 70.0 °F 87% 30.08 in 9.0 mi SE 5.8 mph - N/A   Clear
3:51 AM 73.0 °F - 70.0 °F 90% 30.07 in 9.0 mi SE 5.8 mph - N/A   Clear
4:51 AM 73.0 °F - 70.0 °F 90% 30.06 in 10.0 mi SE 4.6 mph - N/A   Clear
5:51 AM 72.0 °F - 69.1 °F 91% 30.06 in 9.0 mi SE 4.6 mph - N/A   Clear
6:51 AM 73.0 °F - 68.0 °F 84% 30.07 in 10.0 mi SE 5.8 mph - N/A   Clear
7:51 AM 73.9 °F - 70.0 °F 87% 30.08 in 9.0 mi Calm Calm - N/A   Clear
8:51 AM 79.0 °F - 72.0 °F 79% 30.11 in 9.0 mi Calm Calm - N/A   Clear
9:51 AM 81.0 °F 84.9 °F 71.1 °F 72% 30.14 in 10.0 mi Calm Calm - N/A   Mostly Cloudy
10:51 AM 82.9 °F 88.8 °F 73.0 °F 72% 30.14 in 10.0 mi NNE 3.5 mph - N/A   Scattered Clouds
11:06 AM 82.4 °F 87.2 °F 71.6 °F 70% 30.14 in 10.0 mi NE 3.5 mph - N/A   Mostly Cloudy
11:30 AM 82.4 °F 88.2 °F 73.4 °F 74% 30.14 in 10.0 mi Variable 4.6 mph - N/A   Mostly Cloudy
11:51 AM 82.9 °F 88.0 °F 72.0 °F 69% 30.13 in 10.0 mi Variable 4.6 mph - N/A   Partly Cloudy
12:51 PM 84.0 °F 89.6 °F 72.0 °F 67% 30.12 in 10.0 mi NNE 4.6 mph - N/A   Partly Cloudy
1:51 PM 82.9 °F 88.0 °F 72.0 °F 69% 30.09 in 10.0 mi ENE 5.8 mph - N/A   Partly Cloudy
2:51 PM 82.9 °F 87.5 °F 71.1 °F 67% 30.06 in 10.0 mi ENE 5.8 mph - N/A   Partly Cloudy
3:51 PM 82.9 °F 87.5 °F 71.1 °F 67% 30.03 in 10.0 mi East 5.8 mph - N/A   Clear
4:51 PM 82.0 °F 85.9 °F 70.0 °F 67% 30.01 in 10.0 mi ESE 6.9 mph - N/A   Clear
5:51 PM 79.0 °F - 71.1 °F 77% 30.01 in 10.0 mi SE 6.9 mph - N/A   Clear
6:51 PM 77.0 °F - 71.1 °F 82% 30.00 in 10.0 mi SE 8.1 mph - N/A   Clear
7:51 PM 75.0 °F - 72.0 °F 90% 30.03 in 9.0 mi Calm Calm - N/A   Clear
8:51 PM 73.0 °F - 72.0 °F 96% 30.04 in 7.0 mi Calm Calm - N/A   Clear
9:51 PM 73.0 °F - 72.0 °F 96% 30.04 in 8.0 mi SE 3.5 mph - N/A   Clear
10:51 PM 73.0 °F - 73.0 °F 100% 30.03 in 6.0 mi SE 4.6 mph - N/A   Clear
11:51 PM 73.9 °F - 72.0 °F 93% 30.02 in 10.0 mi SSW 5.8 mph - N/A   Clear